Regional Weather Roundup
Issued by NWS Kansas City/Pleasant Hill, MO

Home | Current Version | Previous Version | Graphics & Text | Print | Product List | Glossary Off
Versions: 1 2 3 4 5 6 7 8 9 10 11 12 13 14 15 16 17 18 19 20 21 22 23 24 25 26 27 28 29 30 31 32 33 34 35 36 37 38 39 40 41 42 43 44 45 46 47 48 49 50

000
ASUS43 KEAX 311210
RWREAX

WEATHER ROUNDUP FOR EASTERN KANSAS AND NORTHWEST MISSOURI
NATIONAL WEATHER SERVICE KANSAS CITY/PLEASANT HILL MO
700 AM CDT FRI JUL 31 2015

KSZ040-057-103>105-MOZ028-029-037-043-311300-
...KANSAS CITY METROPOLITAN AREA...

CITY           SKY/WX    TMP DP  RH WIND       PRES   REMARKS
K.C. INTL      PTCLDY    64  60  87 SW5       30.17R
6HR MIN TEMP:  62; 6HR MAX TEMP:  72;

K.C. DOWNTOWN  CLEAR     68  65  90 CALM      30.17R
6HR MIN TEMP:  66; 6HR MAX TEMP:  72;

LEES SUMMIT    CLEAR     65  60  84 SW3       30.18R
6HR MIN TEMP:  63; 6HR MAX TEMP:  73;

OLATHE - IXD   CLEAR     65  61  87 CALM      30.19R
6HR MIN TEMP:  62; 6HR MAX TEMP:  69;

OLATHE - OJC   CLEAR     65  61  87 CALM      30.18R
6HR MIN TEMP:  63; 6HR MAX TEMP:  68;

LAWRENCE       CLEAR     60  59  96 CALM      30.18R

$$

MOZ001>008-011>017-020>025-030>033-038>040-044>046-053-054-311300-
...NORTHERN AND CENTRAL MISSOURI...

CITY           SKY/WX    TMP DP  RH WIND       PRES   REMARKS
ST. JOSEPH     PTCLDY    64  63  96 S3        30.17S
6HR MIN TEMP:  63; 6HR MAX TEMP:  69;

MOSBY          SUNNY     61  61 100 CALM      30.17S
WARRENSBURG    CLEAR     61  61 100 CALM      30.17S
WHITEMAN AFB   CLEAR     64  62  93 CALM      30.16R
6HR MIN TEMP:  62; 6HR MAX TEMP:  68;

CLINTON        FOG       63  63 100 CALM      30.18R VSB<1/4
SEDALIA        CLEAR     69  60  73 SW5       30.18R
6HR MIN TEMP:  65; 6HR MAX TEMP:  73;

WARSAW         NOT AVBL
CHILLICOTHE      N/A     69  66  90 VRB3      30.17S
6HR MIN TEMP:  66; 6HR MAX TEMP:  69;

KIRKSVILLE     CLOUDY    70  63  78 W5        30.15S
6HR MIN TEMP:  65; 6HR MAX TEMP:  72;


$$

MOZ041-047>049-056>058-063>065-088>090-097-311300-
...EASTERN AND SOUTHERN MISSOURI...

CITY           SKY/WX    TMP DP  RH WIND       PRES   REMARKS
ST. LOUIS INTL PTCLDY    73  65  75 W3        30.14R
6HR MIN TEMP:  71; 6HR MAX TEMP:  75;

SPIRIT OF STL  CLEAR     68  67  96 CALM      30.13R
COLUMBIA       CLEAR     69  64  84 W7        30.17R
JEFFERSON CITY PTCLDY    64  64 100 CALM      30.16R
ROLLA          CLEAR     63  62  97 SW3       30.16S
OSAGE BEACH    PTCLDY    61  57  88 CALM      30.18R
SPRINGFIELD    PTCLDY    70  65  84 CALM      30.18R
BRANSON        PTCLDY    64  64 100 CALM      30.19S
JOPLIN         MOCLDY    69  65  86 CALM      30.18R
WEST PLAINS    CLEAR     65  61  87 CALM      30.19R

$$

IAZ060-094-KSZ022-034>040-054-083-096-NEZ052-066-093-311300-
...KANSAS...SOUTHEAST NEBRASKA AND IOWA...

CITY           SKY/WX    TMP DP  RH WIND       PRES   REMARKS
TOPEKA         CLEAR     64  62  93 CALM      30.18R
6HR MIN TEMP:  62; 6HR MAX TEMP:  68;

MANHATTAN      CLEAR     64  63  96 CALM      30.18R
EMPORIA        CLEAR     65  64  97 CALM      30.19R
CHANUTE        CLOUDY    67  66  97 CALM      30.18R
WICHITA        PTCLDY    72  67  84 N5        30.19R
OMAHA          PTCLDY    72  64  76 SW5       30.13S
LINCOLN        CLEAR     68  64  87 S3        30.18S
FALLS CITY     CLEAR     64  62  93 VRB5      30.18R
LAMONI           N/A     70  64  81 W7        30.15R
DES MOINES     PTCLDY    71  63  75 CALM      30.12R

$$




USA.gov is the U.S. government's official web portal to all federal, state and local government web resources and services.